SCOUT A DEB, 2580

Orbit data source: Space-Track

SCOUT A DEB, 2580 is space debris in LEO originally from a launch on Thu, 18 Aug 1966 UTC launched from the Air Force Western Test Range (AFWTR). Debris objects in space refer to the collection of defunct objects orbiting the Earth. Examples of debris include non-operational satellites, rocket bodies, and fragments generated from explosions, collisions, or faulty payload assembly.

Loading next visibility...
Identifier
2580, 1966-076C
Orbit
LEO
Country
Flag of USUS
Related business
Manufacturer
Unknown
Mission
Spacecraft
Bus & Motor
Unknown
Mass
Unknown
Launch date (UTC)
1966-08-18 (59 years ago)
Launch vehicle
Unknown
Launch site
Air Force Western Test Range (AFWTR)
Object type
Payload
Rocket body
Debris
Shape & HBR
Unknown shape, 0.1 m
Radar Cross Section
Small (<0.1 m²)

Expand to show TLE details & history
Last TLE update: 20 hours ago

TLE from 20 hours ago
0 SCOUT A DEB
1 02580U 66076C   25352.87621108  .00000220  00000-0  19651-3 0  9999
2 02580  89.1401 303.0754 0095486 150.2129 265.4991 13.78652347967064
Epoch: 2025-12-18T21:01Z
TLE epoch observation values (Epoch: 2025-12-18T21:01:44.637Z)
Latitude
54.70845°
Longitude
-98.87729°
Altitude
983.967 km
Speed
7.362 km/s
True Right ascension
20h 17m 08s
True Declination
54° 33' 04"
Sunlit
Object was in daylight at epoch
Visualization orbit readout
Latitude
Unknown
Longitude
Unknown
Altitude
Unknown
Speed
Unknown
Apparent Right ascension
Unknown
Apparent Declination
Unknown
Sunlit
N/A
Visualization observer readout
Local Sidereal Time
16:18:46
Azimuth
Unknown
Elevation
Unknown
Doppler factor
Unknown
Orbital elements
Apogee altitude
1,035.803 km
Perigee altitude
895.557 km
Semi-major axis
7,343.817 km
Eccentricity
0.00955
Inclination
89.1401°
RAAN
303.0754°
Arg. of periapsis
150.2129°
True anomaly
264.40937°
Mean anomaly
265.4991°
Eccentric anomaly
264.95413°
Mean motion
3.44874 °/min
Orbital period
104.39 mins
BSTAR
0.00019651
Loading maneuver chart data...
Computing Atmospheric mass density...
Loading historical data...
Loading historical data...
Loading historical data...
Loading historical data...
Loading historical data...
Loading historical data...
Loading historical data...

Documentation

Showing up to 5 results
|